Regional Weather Roundup
Issued by NWS Austin/San Antonio, TX

Home | Current Version | Previous Version | Text Only | Print | Product List | Glossary On
Versions: 1 2 3 4 5 6 7 8 9 10 11 12 13 14 15 16 17 18 19 20 21 22 23 24 25 26 27 28 29 30 31 32 33 34 35 36 37 38 39 40 41 42 43 44 45 46 47 48 49 50
192
ASUS44 KEWX 202202
RWREWX
SOUTH TEXAS REGIONAL WEATHER ROUNDUP
NATIONAL WEATHER SERVICE AUSTIN/SAN ANTONIO TX
500 PM CDT WED SEP 20 2017

NOTE: "FAIR" INDICATED FEW OR NO CLOUDS BELOW 12,000 FEET WITH NO
SIGNIFICANT WEATHER AND/OR OBSTRUCTIONS TO VISIBILITY.

* - THESE STATIONS ARE NOT NWS OR FAA STATIONS...AND ARE NOT SUBJECT
    TO NWS AND FAA QUALITY CONTROL.

TXZ171-172-183>190-202300-
TEXAS HILL COUNTRY AND EDWARDS PLATEAU

CITY           SKY/WX    TMP DP  RH WIND       PRES   REMARKS
JUNCTION       PTSUNNY   95  65  37 S12G21    29.84F HX  97
*LLANO         SUNNY     99  68  36 E9G18     29.85S HX 104
BURNET         SUNNY     94  68  42 S12G20    29.87F HX  98
*HORSESHOE BAY SUNNY     95  68  41 SE10G16   29.84F HX 100
*KERRVILLE     MOSUNNY   94  73  49 S12G17    29.87F HX 102
*FREDERICKSBRG MOSUNNY   92  65  41 S9        29.87F HX  94
*ROCKSPRINGS   NOT AVBL
*BOERNE STAGE  MOSUNNY   91  66  43 S10G18    29.87S HX  94
*CASTROVILLE   PTSUNNY   99  62  29 SE7       29.83F HX 100
HONDO          MOSUNNY   98  67  36 S9        29.82F HX 102
*UVALDE        SUNNY     96  67  38 SE8       29.82S HX 100
DEL RIO        CLOUDY    95  69  42 SE9       29.79S HX 100
LAUGHLIN AFB   PTSUNNY   96  68  39 S9        29.80S HX 100
CARRIZO SPRGS  MOSUNNY   99  68  36 SE9       29.77S HX 104
*EAGLE PASS    CLEAR    100  64  30 S7        29.79F HX 103
$$

TXZ173-191>194-202-209-217>225-228-202300-
CENTRAL AND SOUTH CENTRAL TEXAS

CITY           SKY/WX    TMP DP  RH WIND       PRES   REMARKS
GEORGETOWN     MOSUNNY   93  71  48 SE14      29.86F HX 100
AUSTIN/BERGSTM MOSUNNY   94  72  48 S12       29.83F HX 102
AUSTIN/MABRY   SUNNY     95  71  45 VRB6G17   29.84F HX 102
*AUSTIN/EXEC   MOSUNNY   91  72  52 S9        29.85F HX  98
*LAGO VISTA    SUNNY     92  69  46 SE7       29.87F HX  97
SAN MARCOS     SUNNY     93  72  50 S14       29.84F HX 101
NEW BRAUNFELS  MOSUNNY   95  71  45 S12G20    29.82F HX 102
RANDOLPH AFB   MOSUNNY   95  69  42 SE13      29.83F HX 100
PT SAN ANTONIO MOSUNNY   98  68  38 E12G18    29.80F HX 103
SAN ANTONIO    MOSUNNY   96  69  41 SE16G22   29.83F HX 102
STINSON FIELD  MOSUNNY   99  69  37 SE13      29.80F HX 105
*LA GRANGE     SUNNY     94  74  52 S9        29.83F HX 105
*GIDDINGS      MOSUNNY   91  70  51 S6        29.86S HX  96
*GONZALES      MOSUNNY   92  75  56 S10       29.83F HX 103
$$

TXZ163>164-176>182-195>201-210>213-226-227-235-202300-
SOUTHEAST TEXAS

CITY           SKY/WX    TMP DP  RH WIND       PRES   REMARKS
COLLEGE STN    SUNNY     93  73  52 S14       29.85F HX 102
*BRYAN         SUNNY     92  71  50 S5        29.87S HX  99
*CALDWELL      SUNNY     92  72  50 S9        29.85F HX 100
*CROCKETT      CLOUDY    91  72  52 S9        29.90S HX  98
*BRENHAM       SUNNY     94  71  47 S6        29.86S HX 102
HUNTSVILLE     MOSUNNY   93  68  43 S7        29.88S HX  97
CONROE         MOSUNNY   89  74  60 SE10      29.89R HX  98
HOUSTON BUSH   LGT RAIN  85  75  72 S5        29.88S HX  93
HOUSTON HOBBY  TSTM      82  77  84 NE15G25   29.89S VSB 1   HX  90
*HOUSTON SW AP CLOUDY    89  76  64 S5        29.88S HX  99
PEARLAND       CLOUDY    90  76  63 S14       29.90S HX 101
HOUSTON HOOKS  CLOUDY    90  70  51 S8        29.88S HX  95
ELLINGTON FLD  PTSUNNY   86  77  74 SE8       29.90F HX  97
SUGAR LAND     CLOUDY    88  76  67 E8        29.86F HX  99
*HOUSTON EXEC  CLOUDY    91  75  59 S13       29.87F HX 102
*CLEVELAND MUN CLOUDY    89  74  60 S10       29.91F HX  98
*WHARTON       SUNNY     90  72  55 S13       29.87F HX  96
*COLUMBUS      FAIR      92  71  50 S9        29.86F HX  98
*EAGLE LAKE    CLEAR     92  74  55 S12       29.85F HX 100
$$

TXZ214>216-236>238-202300-
THE UPPER TEXAS COAST

CITY           SKY/WX    TMP DP  RH WIND       PRES   REMARKS
*ORANGE        CLOUDY    85  79  80 S9        29.93F HX  98
PORT ARTHUR    CLOUDY    86  76  71 S9        29.90F HX  96
GALVESTON      MOSUNNY   89  79  72 S15       29.91F HX 104
ANGLETON       SUNNY     90  76  63 S14       29.88F HX 101
*BAY CITY      PTSUNNY   89  77  67 S10       29.87F HAZE    HX 102
PALACIOS       NOT AVBL
$$

TXZ229>234-239>247-202300-
TEXAS COASTAL BEND AND RIO GRANDE PLAINS

CITY           SKY/WX    TMP DP  RH WIND       PRES   REMARKS
VICTORIA       MOSUNNY   91  73  55 SE14      29.85F HX  99
*BEEVILLE      MOSUNNY   93  64  37 SE13G20   29.82F HX  95
ROCKPORT       MOSUNNY   88  77  69 SE15      29.84F HX 100
*PORT ARANSAS  NOT AVBL
*PORT LAVACA   MOSUNNY   89  73  59 S13       29.86F HX  97
*INGLESIDE     NOT AVBL
CORPUS CHRISTI PTSUNNY   91  76  61 SE21      29.82F HX 103
CORPUS NAS     PTSUNNY   91  78  65 SE20      29.83F HX 106
*ROBSTOWN      MOSUNNY   92  75  57 SE18      29.82S HX 103
ALICE          MOSUNNY   95  74  50 SE17G28   29.79F HX 105
KINGSVILLE NAS PTSUNNY   92  78  63 SE17G26   29.81F HX 107
COTULLA        PTSUNNY  101  61  26 SE13G18   29.77F HX 102
*FAITH RANCH   SUNNY    100  64  30 SE9G17    29.78S HX 103
LAREDO         SUNNY    100  65  31 SE9       29.78F HX 103
$$

TXZ248>255-202300-
DEEP SOUTH TEXAS

CITY           SKY/WX    TMP DP  RH WIND       PRES   REMARKS
BROWNSVILLE    MOSUNNY   89  75  63 SE18      29.83F HX  99
PORT ISABEL    MOSUNNY   90  77  65 SE20      29.83S HX 103
*SOUTH PADRE   NOT AVBL
HARLINGEN      PTSUNNY   93  73  52 SE21G26   29.80F HX 102
*HEBBRONVILLE  MOSUNNY   97  60  28 S9G16     29.81S HX  97
MCALLEN        MOSUNNY   98  69  38 SE14      29.79F HX 104
*WESLACO       PTSUNNY   96  69  41 S15G21    29.79S HX 101
FALFURRIAS     SUNNY    -38  32 100 SE16G24   29.79S WCI -69
EDINBURG       MOSUNNY   99  66  34 S15       29.79S HX 102
*ZAPATA        MOSUNNY  100  61  27 SE12G18   29.77S HX 101
$$

TXZ213>215-236>238-242>244-246-247-251-254-255-202300-
CMAN STATIONS

STATION/POSITION TIME  TEMP    WIND        PRES    WAVE
                       AIR SEA DIR/SP/G            HT/PER
                 (UTC) (F)     (DEG/KT/KT) (MB)    (FT/S)
SABINE PASS      2118   85 85  170/ 10/ 13 1014.7
SEA RIM ST PARK  2100   84     170/  8/ 11 1013.8
NORTH JETTY/GLS  2118      85  150/ 14/ 16 1012.4
EAGLE POINT      2118   85 86  170/ 14/ 17 1012.7
MORGANS POINT    2124   85 83  140/  8/ 12 1012.4
PORT O`CONNOR    2118   85 85  160/ 12/ 14 1011.3
MALAQUITE BEACH  2124   84 85  120/ 18/ 19 1010.0
BAFFIN BAY       2124   84 89  120/ 16/ 19 1010.3
PORT ISABEL      2124   85 86  130/ 15/ 18 1010.6
$$




USA.gov is the U.S. government's official web portal to all federal, state and local government web resources and services.